THOR ABLESTAR DEB, 120

Orbit data source: Space-Track

THOR ABLESTAR DEB, 120 is space debris in LEO originally from a launch on Thu, 29 Jun 1961 UTC launched from the Air Force Eastern Test Range (AFETR). Debris objects in space refer to the collection of defunct objects orbiting the Earth. Examples of debris include non-operational satellites, rocket bodies, and fragments generated from explosions, collisions, or faulty payload assembly.

Loading next visibility...
Identifier
120, 1961-015E
Orbit
LEO
Country
Flag of USUS
Related business
Manufacturer
Unknown
Mission
Spacecraft
Bus & Motor
Unknown
Mass
Unknown
Launch date (UTC)
1961-06-29 (65 years ago)
Launch vehicle
Unknown
Launch site
Air Force Eastern Test Range (AFETR)
Object type
Payload
Rocket body
Debris
Shape & HBR
Unknown shape, 0.2 m
Radar Cross Section
Medium (>0.1 m² and <1 m²)

Expand to show TLE details & history
Last TLE update: 6 hours ago

TLE from 6 hours ago
0 THOR ABLESTAR DEB
1   120U 61015E   26247.21466736  .00000385  00000-0  17088-3 0  9995
2   120  66.7033 224.9801 0116350 305.2127  53.8121 14.29666958359623
Epoch: 2026-09-04T05:09Z
TLE epoch observation values (Epoch: 2026-09-04T05:09:07.259Z)
Latitude
-0.00001°
Longitude
164.35815°
Altitude
746.323 km
Speed
7.507 km/s
True Right ascension
14h 59m 55s
True Declination
0° 00' 00"
Sunlit
Object was in daylight at epoch
Visualization orbit readout
Latitude
Unknown
Longitude
Unknown
Altitude
Unknown
Speed
Unknown
Apparent Right ascension
Unknown
Apparent Declination
Unknown
Sunlit
N/A
Visualization observer readout
Local Sidereal Time
03:05:09
Azimuth
Unknown
Elevation
Unknown
Doppler factor
Unknown
Orbital elements
Apogee altitude
874.634 km
Perigee altitude
707.803 km
Semi-major axis
7,169.356 km
Eccentricity
0.01164
Inclination
66.7033°
RAAN
224.9801°
Arg. of periapsis
305.2127°
True anomaly
54.89742°
Mean anomaly
53.8121°
Eccentric anomaly
54.35383°
Mean motion
3.57539 °/min
Orbital period
100.69 mins
BSTAR
0.00017088
Loading maneuver chart data...
Computing Atmospheric mass density...
Loading historical data...
Loading historical data...
Loading historical data...
Loading historical data...
Loading historical data...
Loading historical data...
Loading historical data...

Documentation

Showing up to 5 results
|